Aulavik National Park,

10:42 PM MST on November 22, 2017 (GMT -0700)
Aulavik National Park

Weather History for CWSQ - March, 2014

Change the Weather History Date:

Tuesday, March 18, 2014

  Actual Average Record
Temperature  
Mean Temperature -26 °F -  
Max Temperature -20 °F - - ()
Min Temperature -31 °F - - ()
Degree Days  
Heating Degree Days 90    
Moisture  
Dew Point -33 °F    
Average Humidity 69    
Maximum Humidity 74    
Minimum Humidity 51    
Precipitation  
Precipitation 0.02 in - - ()
Sea Level Pressure  
Sea Level Pressure 30.26 in    
Wind  
Wind Speed 5 mph ()    
Max Wind Speed 12 mph    
Max Gust Speed -    
T = Trace of Precipitation, MM = Missing Value Source: Averaged Metar Reports

Daily Weather History Graph

Daily Weather History Graph

Search for Another Location

Airport or City:

Trip Planner

Search our weather history database for the weather conditions in past years. The results will help you decide how hot, cold, wet, or windy it might be!

Date:

Astronomy

Mar. 18, 2014 Rise Set
Actual Time 8:07 AM MDT 8:11 PM MDT
Civil Twilight 6:50 AM MDT 9:28 PM MDT
Nautical Twilight 5:08 AM MDT 11:13 PM MDT
Astronomical Twilight 2:40 AM MDT 1:35 AM MDT
Moon No Moon Rise 7:18 AM MDT (3/18)
Length of Visible Light 14h 37m
Length of Day
12h 03m
Waning Gibbous, 96% of the Moon is Illuminated
Mar 18
Waning Gibbous
Mar 23
Last Quarter
Mar 30
New
Apr 7
First Quarter
Apr 15
Full

Hourly Weather History & Observations

Time (MDT) Temp. Windchill Dew Point Humidity Pressure Visibility Wind Dir Wind Speed Gust Speed Precip Events Conditions
12:00 AM -24 °F - -30 °F 60% 30.19 in - NNW 6.9 mph - -  
12:00 AM -23.8 °F -44.5 °F -29.7 °F 74% 30.19 in - NNW 9.2 mph - N/A   Unknown
1:00 AM -28.5 °F -47.2 °F -34.8 °F 72% 30.19 in - NNE 6.9 mph - N/A   Unknown
3:00 AM -29.2 °F -53.7 °F -35.5 °F 72% 30.21 in - NNE 11.5 mph - N/A   Unknown
5:00 AM -29.9 °F -44.8 °F -36.6 °F 70% 30.21 in - North 4.6 mph - N/A   Unknown
6:00 AM -31 °F - -38 °F 51% 30.22 in - West 3.5 mph - -  
6:00 AM -31.4 °F - -38.2 °F 69% 30.22 in - WNW 2.3 mph - N/A   Unknown
7:00 AM -31.5 °F -43.9 °F -38.4 °F 69% 30.22 in - North 3.5 mph - N/A   Unknown
8:00 AM -30.8 °F -43.1 °F -37.5 °F 70% 30.23 in - NNW 3.5 mph - N/A   Unknown
9:00 AM -31.0 °F -48.4 °F -37.8 °F 69% 30.24 in - North 5.8 mph - N/A   Unknown
10:00 AM -29.4 °F - -36.2 °F 70% 30.24 in - WNW 2.3 mph - 0.01 in   Unknown
11:00 AM -27.8 °F -39.6 °F -34.8 °F 69% 30.24 in - NNW 3.5 mph - N/A   Unknown
12:00 PM -26 °F - -33 °F 54% 30.25 in - NNW 4.6 mph - -  
12:00 PM -26.0 °F -37.5 °F -32.8 °F 70% 30.25 in - NNW 3.5 mph - 0.01 in   Unknown
1:00 PM -25.1 °F -41.3 °F -31.9 °F 70% 30.25 in - North 5.8 mph - N/A   Unknown
2:00 PM -23.6 °F -39.6 °F -30.3 °F 71% - - North 5.8 mph - N/A   Unknown
3:00 PM -22.4 °F -39.9 °F -29.2 °F 70% 30.29 in - North 6.9 mph - N/A   Unknown
4:00 PM -22.4 °F -42.8 °F -29.2 °F 70% - - NNE 9.2 mph - N/A   Unknown
5:00 PM -22.2 °F -39.7 °F -29.0 °F 70% 30.31 in - North 6.9 mph - N/A   Unknown
6:00 PM -20 °F - -26 °F 59% 30.31 in - West 1.2 mph - -  
6:00 PM -20.2 °F - -26.1 °F 74% 30.31 in - Calm Calm - N/A   Unknown
7:00 PM -23.1 °F -34.2 °F -29.6 °F 72% 30.32 in - WNW 3.5 mph - N/A   Unknown
8:00 PM -25.2 °F -44.9 °F -31.5 °F 72% 30.34 in - NNE 8.1 mph - N/A   Unknown
9:00 PM -25.1 °F - -31.0 °F 74% 30.35 in - WNW 1.2 mph - 0.01 in   Unknown
10:00 PM -28.5 °F - -34.8 °F 72% 30.37 in - Calm Calm - N/A   Unknown
11:00 PM -26.7 °F -38.3 °F -32.8 °F 73% 30.38 in - NNW 3.5 mph - N/A   Unknown